Regional Weather Roundup
Issued by NWS

Home | Current Version | Previous Version | Graphics & Text | Print | Product List | Glossary On
Versions: 1 2 3 4 5 6 7 8 9 10 11 12 13 14 15 16 17 18 19 20 21 22 23 24 25 26 27 28 29 30 31 32 33 34 35 36 37 38 39 40 41 42 43 44 45 46 47 48 49 50
980
ASUS45 KPSR 152110
RWRAZ

ARIZONA HOURLY REGIONAL WEATHER ROUNDUP
NATIONAL WEATHER SERVICE PHOENIX AZ
200 PM MST FRI DEC 15 2017

NOTE: FAIR INDICATES FEW OR NO CLOUDS BELOW 12,000 FEET WITH NO
SIGNIFICANT WEATHER AND/OR OBSTRUCTIONS TO VISIBILITY.

AZZ001>003-036-152200-
NORTHWEST ARIZONA

CITY           SKY/WX    TMP DP  RH WIND       PRES   REMARKS
BULLHEAD CITY  SUNNY     68  14  12 N13       30.13F
KINGMAN        SUNNY     63   6  10 VRB3      30.16F
$$

AZZ004>008-015-016-018-152200-
NORTH CENTRAL ARIZONA

CITY           SKY/WX    TMP DP  RH WIND       PRES   REMARKS
GRAND CANYON   SUNNY     57 -13   5 SW9       30.23F
WILLIAMS       SUNNY     57 -22   3 NW8       30.20F
PRESCOTT       SUNNY     59  -4   7 CALM      30.19F
FLAGSTAFF      SUNNY     55 -18   4 VRB3      30.23F
PAYSON         SUNNY     55   1  11 SW6       30.20F
PAGE           SUNNY     47  15  27 VRB5      30.21F
$$

AZZ009>014-017-152200-
NORTHEAST ARIZONA

CITY           SKY/WX    TMP DP  RH WIND       PRES   REMARKS
WINSLOW        SUNNY     50   6  16 CALM      30.24F
SAINT JOHNS    SUNNY     47  11  23 CALM      30.23F
SHOW LOW       SUNNY     48   9  20 N8        30.24F
$$

AZZ540-542>544-546-548-152200-
GREATER PHOENIX AREA

CITY           SKY/WX    TMP DP  RH WIND       PRES   REMARKS
PHOENIX        SUNNY     71  18  13 CALM      30.10F
BUCKEYE        SUNNY     68  46  45 SE9       30.11F
GLENDALE       SUNNY     72  16  12 CALM      30.13F
LUKE AFB       SUNNY     71  11  10 E3        30.09F
DEER VALLEY    SUNNY     69   6   8 E6        30.11F
SCOTTSDALE     SUNNY     69  16  13 E5        30.13F
MESA-FALCON    SUNNY     70  19  14 N5        30.12F
MESA-GATEWAY   SUNNY     68  18  14 CALM      30.13F
CHANDLER       SUNNY     70  18  13 CALM      30.12F
$$

AZZ539-553-152200-
SOUTHWEST MARICOPA COUNTY AND PINAL COUNTY

CITY           SKY/WX    TMP DP  RH WIND       PRES   REMARKS
CASA GRANDE    NOT AVBL
GILA BEND      SUNNY     72  18  13 E8        30.09F
$$

AZZ503-504-507>509-152200-
SOUTHEAST ARIZONA

CITY           SKY/WX    TMP DP  RH WIND       PRES   REMARKS
TUCSON         SUNNY     68  17  14 E8        30.12F
DAVIS-MONTHAN  SUNNY     72  18  13 CALM      30.11F
RYAN FIELD     SUNNY     68  19  15 E14G20    30.13F
NOGALES        SUNNY     66  15  14 VRB3G16   30.11F
SIERRA VISTA   SUNNY     58  12  16 E16       30.18F
DOUGLAS        SUNNY     57  19  22 E13G23    30.17F
SAFFORD        SUNNY     59  17  19 SE9       30.18F
$$

AZZ532-152200-
SOUTHWEST ARIZONA

CITY           SKY/WX    TMP DP  RH WIND       PRES   REMARKS
YUMA           SUNNY     76  17  11 NE8       30.08F
$$

CAZ041-043-047-048-061-525>527-560>570-152200-
SOUTHERN CALIFORNIA

CITY           SKY/WX    TMP DP  RH WIND       PRES   REMARKS
DOWNTOWN L.A.  SUNNY     79  14   8 CALM      30.05F
L.A. AIRPORT   MOSUNNY   75  32  20 W9        30.06F
SAN DIEGO      MOSUNNY   75  28  17 NW9       30.07F
BURBANK        SUNNY     79  15   9 S5        30.07F
ONTARIO        MOSUNNY   78   5   6 W5        30.08F
RIVERSIDE      SUNNY     79  10   7 VRB3      30.07F
PALM SPRINGS   SUNNY     77  13   9 VRB5      30.10F
EL CENTRO NAS  MOSUNNY   76  11   8 CALM      30.11F
IMPERIAL       SUNNY     75  15  10 CALM      30.09F
BLYTHE         SUNNY     72  16  12 CALM      30.11F
NEEDLES        SUNNY     70  14  11 NE6       30.13F
$$

NVZ020-UTZ003-152200-
SOUTHERN NEVADA-UTAH

CITY           SKY/WX    TMP DP  RH WIND       PRES   REMARKS
LAS VEGAS      MOSUNNY   59  17  19 VRB6      30.16F
SALT LAKE CITY PTSUNNY   42  24  49 VRB5      30.16F
$$

NMZ009-TXZ055-152200-
NEW MEXICO-WEST TEXAS

CITY           SKY/WX    TMP DP  RH WIND       PRES   REMARKS
ALBUQUERQUE    SUNNY     45  15  30 SW5       30.21F
EL PASO        SUNNY     52  22  30 N6        30.23F
$$


........................KEY........................
SKY/WX - SKY CONDITION/WEATHER
TMP    - TEMPERATURE IN FAHRENHEIT
DP     - DEW POINT IN FAHRENHEIT
RH     - RELATIVE HUMIDITY IN PERCENT
WIND   - DIRECTION AND SPEED IN MILES PER HOUR (MPH)
VRB    - VARIABLE WIND DIRECTION
PRES   - MEAN SEA LEVEL PRESSURE IN INCHES OF MERCURY
         F - FALLING PRESSURE   R - RISING PRESSURE
         S - STEADY PRESSURE
VSB    - VISIBILITY IN MILES
HX     - HEAT INDEX IN FAHRENHEIT
WCI    - WIND CHILL INDEX IN FAHRENHEIT
TC     - TEMPERATURE IN CELSIUS WHICH IS ALSO KNOWN AS
         TEMPERATURE IN CENTIGRADE
AFB    - AIR FORCE BASE
         LUKE AFB IS LUKE AIR FORCE BASE
         DAVIS-MONTHAN IS DAVIS-MONTHAN AIR FORCE BASE
NAS    - NAVAL AIR STATION
         EL CENTRO NAS IS EL CENTRO NAVAL AIR STATION
N/A    - NOT AVAILABLE





USA.gov is the U.S. government's official web portal to all federal, state and local government web resources and services.